TimeEST,TemperatureF,Dew PointF,Humidity,Sea Level PressureIn,VisibilityMPH,Wind Direction,Wind SpeedMPH,Gust SpeedMPH,PrecipitationIn,Events,Conditions,WindDirDegrees,DateUTC
12:15 AM,26.6,23.0,86,30.38,10.0,Calm,Calm,-,N/A,,Clear,0,2013-01-19 05:15:00
12:35 AM,27.1,22.5,83,30.37,10.0,Calm,Calm,-,N/A,,Clear,0,2013-01-19 05:35:00
12:55 AM,27.1,22.1,81,30.36,10.0,Calm,Calm,-,N/A,,Clear,0,2013-01-19 05:55:00
1:15 AM,27.5,21.4,78,30.36,10.0,Calm,Calm,-,N/A,,Clear,0,2013-01-19 06:15:00
1:35 AM,27.0,21.0,78,30.36,10.0,Calm,Calm,-,N/A,,Clear,0,2013-01-19 06:35:00
2:15 AM,27.5,20.8,76,30.36,10.0,Calm,Calm,-,N/A,,Clear,0,2013-01-19 07:15:00
2:35 AM,27.0,20.3,76,30.36,10.0,Calm,Calm,-,N/A,,Clear,0,2013-01-19 07:35:00
2:55 AM,27.5,20.7,75,30.36,10.0,South,3.5,-,N/A,,Clear,170,2013-01-19 07:55:00
3:35 AM,26.2,20.5,79,30.35,10.0,Calm,Calm,-,N/A,,Clear,0,2013-01-19 08:35:00
3:55 AM,26.6,20.3,77,30.34,10.0,Calm,Calm,-,N/A,,Clear,0,2013-01-19 08:55:00
4:15 AM,25.3,21.0,84,30.34,10.0,Calm,Calm,-,N/A,,Clear,0,2013-01-19 09:15:00
4:35 AM,25.2,20.5,82,30.34,10.0,Calm,Calm,-,N/A,,Clear,0,2013-01-19 09:35:00
4:55 AM,24.6,20.3,84,30.34,10.0,Calm,Calm,-,N/A,,Clear,0,2013-01-19 09:55:00
5:15 AM,24.8,20.3,83,30.34,10.0,Calm,Calm,-,N/A,,Clear,0,2013-01-19 10:15:00
5:35 AM,25.2,20.5,82,30.34,10.0,Calm,Calm,-,N/A,,Clear,0,2013-01-19 10:35:00
5:55 AM,24.4,20.3,84,30.34,10.0,Calm,Calm,-,N/A,,Clear,0,2013-01-19 10:55:00
6:15 AM,24.8,20.3,83,30.34,10.0,Calm,Calm,-,N/A,,Clear,0,2013-01-19 11:15:00
6:35 AM,23.7,19.8,85,30.34,10.0,Calm,Calm,-,N/A,,Clear,0,2013-01-19 11:35:00
6:55 AM,25.9,19.4,76,30.34,10.0,SSW,3.5,-,N/A,,Clear,210,2013-01-19 11:55:00
8:15 AM,26.6,19.2,74,30.33,10.0,WSW,4.6,-,N/A,,Clear,250,2013-01-19 13:15:00
9:15 AM,26.1,20.5,79,30.34,10.0,Calm,Calm,-,N/A,,Clear,0,2013-01-19 14:15:00
9:35 AM,28.4,21.0,74,30.34,10.0,Calm,Calm,-,N/A,,Clear,0,2013-01-19 14:35:00
9:55 AM,26.4,21.2,81,30.34,10.0,Calm,Calm,-,N/A,,Clear,0,2013-01-19 14:55:00
11:15 AM,35.4,24.8,65,30.32,10.0,Calm,Calm,-,N/A,,Clear,0,2013-01-19 16:15:00
11:35 AM,35.8,24.6,64,30.31,10.0,Calm,Calm,-,N/A,,Clear,0,2013-01-19 16:35:00
11:55 AM,37.4,23.4,57,30.30,10.0,Calm,Calm,-,N/A,,Clear,0,2013-01-19 16:55:00
12:15 PM,38.5,26.4,62,30.27,10.0,Calm,Calm,-,N/A,,Clear,0,2013-01-19 17:15:00
1:15 PM,43.0,13.5,30,30.23,10.0,Calm,Calm,-,N/A,,Clear,0,2013-01-19 18:15:00
1:35 PM,43.5,21.2,41,30.22,10.0,Calm,Calm,-,N/A,,Clear,0,2013-01-19 18:35:00
1:55 PM,44.8,14.9,30,30.21,10.0,Calm,Calm,-,N/A,,Clear,0,2013-01-19 18:55:00
2:15 PM,45.7,15.4,30,30.20,10.0,Calm,Calm,-,N/A,,Clear,0,2013-01-19 19:15:00
2:55 PM,45.5,13.8,28,30.19,10.0,Calm,Calm,-,N/A,,Clear,0,2013-01-19 19:55:00
3:35 PM,44.4,27.0,50,30.17,10.0,Calm,Calm,-,N/A,,Clear,0,2013-01-19 20:35:00
3:55 PM,43.2,28.2,56,30.17,10.0,South,3.5,-,N/A,,Clear,170,2013-01-19 20:55:00
4:15 PM,42.3,27.9,57,30.16,10.0,SSE,3.5,-,N/A,,Clear,160,2013-01-19 21:15:00
4:35 PM,41.7,26.8,55,30.16,10.0,SSE,5.8,-,N/A,,Clear,160,2013-01-19 21:35:00
4:55 PM,40.6,26.4,57,30.16,10.0,SSE,5.8,-,N/A,,Clear,150,2013-01-19 21:55:00
5:15 PM,39.6,26.4,59,30.16,10.0,SE,4.6,-,N/A,,Clear,140,2013-01-19 22:15:00
5:35 PM,39.2,25.7,58,30.16,10.0,SSE,4.6,-,N/A,,Clear,150,2013-01-19 22:35:00
5:55 PM,39.4,24.1,54,30.16,10.0,SSE,3.5,-,N/A,,Clear,150,2013-01-19 22:55:00
6:15 PM,38.7,23.9,55,30.16,10.0,Calm,Calm,-,N/A,,Clear,0,2013-01-19 23:15:00
6:35 PM,38.7,23.5,55,30.16,10.0,Calm,Calm,-,N/A,,Clear,0,2013-01-19 23:35:00
6:55 PM,37.6,23.9,58,30.15,10.0,Calm,Calm,-,N/A,,Clear,0,2013-01-19 23:55:00
7:15 PM,37.2,23.9,59,30.16,10.0,SSE,4.6,-,N/A,,Clear,150,2013-01-20 00:15:00
7:35 PM,36.0,23.9,62,30.16,10.0,Calm,Calm,-,N/A,,Clear,0,2013-01-20 00:35:00
7:55 PM,35.2,23.9,63,30.15,10.0,Calm,Calm,-,N/A,,Clear,0,2013-01-20 00:55:00
8:15 PM,34.9,23.7,64,30.15,10.0,Calm,Calm,-,N/A,,Clear,0,2013-01-20 01:15:00
8:35 PM,35.6,23.5,62,30.15,10.0,Calm,Calm,-,N/A,,Clear,0,2013-01-20 01:35:00
9:15 PM,35.1,23.7,63,30.13,10.0,Calm,Calm,-,N/A,,Clear,0,2013-01-20 02:15:00
9:35 PM,34.2,23.9,66,30.13,10.0,Calm,Calm,-,N/A,,Clear,0,2013-01-20 02:35:00
9:55 PM,34.0,24.3,68,30.12,10.0,Calm,Calm,-,N/A,,Clear,0,2013-01-20 02:55:00
10:15 PM,33.3,24.6,71,30.11,10.0,South,3.5,-,N/A,,Clear,190,2013-01-20 03:15:00
10:35 PM,33.1,24.4,71,30.11,10.0,Calm,Calm,-,N/A,,Clear,0,2013-01-20 03:35:00
10:55 PM,33.3,24.4,70,30.10,10.0,Calm,Calm,-,N/A,,Clear,0,2013-01-20 03:55:00
11:15 PM,32.0,24.1,73,30.10,10.0,Calm,Calm,-,N/A,,Clear,0,2013-01-20 04:15:00
11:35 PM,32.7,24.3,71,30.09,10.0,Calm,Calm,-,N/A,,Clear,0,2013-01-20 04:35:00
11:55 PM,32.9,23.9,69,30.08,10.0,Calm,Calm,-,N/A,,Clear,0,2013-01-20 04:55:00